CST,Max TemperatureF,Mean TemperatureF,Min TemperatureF,Max Dew PointF,MeanDew PointF,Min DewpointF,Max Humidity, Mean Humidity, Min Humidity, Max Sea Level PressureIn, Mean Sea Level PressureIn, Min Sea Level PressureIn, Max VisibilityMiles, Mean VisibilityMiles, Min VisibilityMiles, Max Wind SpeedMPH, Mean Wind SpeedMPH, Max Gust SpeedMPH,PrecipitationIn, CloudCover, Events, WindDirDegrees
2012-2-1,,,,,,,,,,,,,,,,,,,,,,
2012-2-2,,,,,,,,,,,,,,,,,,,,,,
2012-2-3,,,,,,,,,,,,,,,,,,,,,,
2012-2-4,,,,,,,,,,,,,,,,,,,,,,
2012-2-5,,,,,,,,,,,,,,,,,,,,,,
2012-2-6,,,,,,,,,,,,,,,,,,,,,,
2012-2-7,30,24,17,28,23,16,93,87,75,30.44,30.38,30.30,10,8,1,29,18,34,0.00,5,Rain-Snow,7
2012-2-8,37,26,14,28,21,10,100,87,65,30.44,30.36,30.19,10,7,0,17,3,22,0.00,5,Fog-Snow,174
2012-2-9,33,32,30,30,27,23,100,86,75,30.19,30.12,30.06,10,7,1,20,13,25,0.00,6,Rain-Snow,182
2012-2-10,41,31,21,28,25,19,100,82,57,30.28,30.22,30.16,10,8,0,15,7,,0.00,1,Snow,344
2012-2-11,23,18,14,19,12,9,86,73,59,30.55,30.48,30.34,10,10,10,18,13,21,0.00,6,,59
2012-2-12,24,20,15,19,13,9,93,76,54,30.47,30.24,29.96,10,8,1,24,12,30,0.00,7,Snow,176
2012-2-13,50,36,23,32,28,21,93,77,50,29.89,29.76,29.71,10,8,2,25,16,34,0.00,2,Snow,243
2012-2-14,62,46,30,39,32,28,100,71,30,29.85,29.80,29.73,10,10,7,14,9,20,0.00,3,,186
2012-2-15,50,40,30,37,30,23,93,70,43,30.12,29.88,29.78,10,10,5,31,14,38,0.00,1,,272
2012-2-16,50,36,23,30,26,19,100,72,37,30.30,30.22,30.16,10,10,3,12,2,,0.00,1,,110
2012-2-17,48,40,32,37,35,30,100,82,58,30.13,30.08,30.00,10,8,4,13,4,,0.00,7,Rain,197
2012-2-18,39,36,32,37,33,32,100,97,93,30.10,30.06,30.00,4,1,0,17,5,22,0.00,8,Fog-Rain-Snow,5
2012-2-19,48,40,32,37,35,30,100,88,66,30.06,29.93,29.78,10,7,0,31,11,39,0.00,6,Fog,186
2012-2-20,51,42,33,39,26,9,100,58,19,30.01,29.81,29.73,10,9,2,41,23,55,0.00,3,,255
2012-2-21,60,42,23,21,16,10,80,44,14,30.05,29.95,29.86,10,10,10,25,11,34,0.00,0,,230
2012-2-22,71,52,32,27,21,18,60,38,13,29.83,29.72,29.53,10,10,10,17,11,24,0.00,0,,256
2012-2-23,55,48,41,32,25,12,57,40,28,29.86,29.57,29.40,10,10,10,36,18,45,0.00,1,,324
2012-2-24,50,36,21,19,12,1,80,46,14,30.30,30.23,30.08,10,10,10,14,6,21,0.00,0,,305
2012-2-25,60,44,28,25,15,10,51,33,14,30.29,30.05,29.86,10,9,5,40,19,51,0.00,0,,204
2012-2-26,59,46,33,27,17,7,70,35,14,30.19,29.97,29.85,10,10,10,28,17,36,0.00,0,,70
2012-2-27,46,44,41,37,16,5,76,37,21,30.32,30.24,30.15,10,10,10,24,19,30,0.00,8,,98
2012-2-28,71,58,46,54,39,9,100,67,12,30.05,29.85,29.63,10,5,0,43,24,53,0.00,6,Rain,200
2012-2-29,62,47,32,19,15,9,56,31,14,30.04,29.95,29.86,10,10,10,17,11,26,0.00,0,,240